TimeCST,TemperatureF,Dew PointF,Humidity,Sea Level PressureIn,VisibilityMPH,Wind Direction,Wind SpeedMPH,Gust SpeedMPH,PrecipitationIn,Events,Conditions,WindDirDegrees,DateUTC
12:55 AM,24.8,14.7,66,29.94,10.0,WNW,12.7,-,N/A,,Clear,290,2013-01-04 06:55:00
1:55 AM,23.7,14.5,68,29.95,10.0,WNW,13.8,-,N/A,,Clear,290,2013-01-04 07:55:00
2:55 AM,22.8,14.2,69,29.96,10.0,WNW,15.0,-,N/A,,Clear,290,2013-01-04 08:55:00
3:55 AM,21.4,13.3,71,29.97,10.0,WNW,13.8,-,N/A,,Clear,290,2013-01-04 09:55:00
4:55 AM,19.4,12.6,75,29.98,10.0,WNW,12.7,-,N/A,,Clear,290,2013-01-04 10:55:00
5:55 AM,20.1,12.9,74,30.00,10.0,NW,8.1,-,N/A,,Clear,320,2013-01-04 11:55:00
6:55 AM,18.3,11.8,76,30.01,10.0,NW,5.8,-,N/A,,Clear,320,2013-01-04 12:55:00
7:55 AM,16.5,10.4,77,30.02,10.0,WNW,9.2,-,N/A,,Clear,300,2013-01-04 13:55:00
8:55 AM,16.3,10.4,77,30.03,10.0,WNW,9.2,-,N/A,,Clear,290,2013-01-04 14:55:00
9:55 AM,23.2,13.5,66,30.06,10.0,WNW,8.1,-,N/A,,Clear,300,2013-01-04 15:55:00
10:55 AM,25.9,14.9,63,30.09,10.0,WNW,8.1,-,N/A,,Clear,300,2013-01-04 16:55:00
11:55 AM,27.0,16.5,65,30.09,10.0,NNW,9.2,-,N/A,,Clear,330,2013-01-04 17:55:00
12:55 PM,28.8,17.1,62,30.10,10.0,North,12.7,-,N/A,,Clear,360,2013-01-04 18:55:00
1:55 PM,28.9,18.1,64,30.10,10.0,NNW,5.8,-,N/A,,Clear,330,2013-01-04 19:55:00
2:55 PM,29.3,18.5,64,30.10,10.0,North,6.9,-,N/A,,Clear,360,2013-01-04 20:55:00
3:55 PM,27.0,18.5,70,30.09,10.0,NE,4.6,-,N/A,,Clear,40,2013-01-04 21:55:00
4:55 PM,22.6,16.3,77,30.11,10.0,Calm,Calm,-,N/A,,Clear,0,2013-01-04 22:55:00
5:55 PM,14.0,11.7,90,30.12,10.0,Calm,Calm,-,N/A,,Clear,0,2013-01-04 23:55:00
6:55 PM,9.5,6.3,87,30.12,10.0,North,3.5,-,N/A,,Clear,10,2013-01-05 00:55:00
7:55 PM,7.3,2.7,81,30.09,10.0,SW,4.6,-,N/A,,Clear,230,2013-01-05 01:55:00
8:55 PM,4.5,0.5,84,30.09,10.0,West,3.5,-,N/A,,Clear,270,2013-01-05 02:55:00
9:55 PM,4.3,0.3,84,30.07,9.0,Calm,Calm,-,N/A,,Clear,0,2013-01-05 03:55:00
9:58 PM,5.0,1.4,85,30.03,0.5,Calm,Calm,-,N/A,Fog,Fog,0,2013-01-05 03:58:00
9:59 PM,5.0,1.4,85,30.06,0.8,Calm,Calm,-,N/A,,Clear,0,2013-01-05 03:59:00
10:05 PM,5.0,1.4,85,30.06,0.2,Calm,Calm,-,N/A,Fog,Light Freezing Fog,0,2013-01-05 04:05:00
10:15 PM,5.0,-0.4,78,30.06,0.8,Calm,Calm,-,N/A,,Haze,0,2013-01-05 04:15:00
10:19 PM,3.2,-0.4,85,30.06,1.0,Calm,Calm,-,N/A,,Clear,0,2013-01-05 04:19:00
10:29 PM,3.2,-0.4,85,30.06,0.5,Calm,Calm,-,N/A,Fog,Fog,0,2013-01-05 04:29:00
10:32 PM,3.2,-0.4,85,30.07,0.5,Calm,Calm,-,N/A,Fog,Light Freezing Fog,0,2013-01-05 04:32:00
10:35 PM,3.2,-0.4,85,30.06,0.5,Calm,Calm,-,N/A,,Haze,0,2013-01-05 04:35:00
10:37 PM,3.2,-0.4,85,30.06,0.2,Calm,Calm,-,N/A,Fog,Fog,0,2013-01-05 04:37:00
10:55 PM,1.9,-2.4,82,30.06,0.2,Calm,Calm,-,N/A,,Haze,0,2013-01-05 04:55:00
11:10 PM,1.4,-2.2,85,30.06,0.5,Calm,Calm,-,N/A,,Haze,0,2013-01-05 05:10:00
11:11 PM,1.4,-2.2,85,30.06,0.5,Calm,Calm,-,N/A,,Haze,0,2013-01-05 05:11:00
11:21 PM,1.4,-2.2,85,30.06,0.2,North,3.5,-,N/A,,Haze,10,2013-01-05 05:21:00
11:22 PM,1.4,-2.2,85,30.06,0.2,North,3.5,-,N/A,,Haze,10,2013-01-05 05:22:00
11:55 PM,2.1,-2.0,83,30.06,0.2,Calm,Calm,-,N/A,,Haze,0,2013-01-05 05:55:00